Vorticity
-3 26 -5 12 25 6 18 4 10 -1 13 2 6 2 7 12 6 -7 29 22 -11 3 16 21 -7 17 11 3 6 7 9 9 9 6 6 9 9 9
58 21 25 20 20 8 6 3 4 -0 6 9 -2 19 16 19 26 -4 32 17 -1 7 22 4 23 28 2 6 7 8 9 9 8 6 8 8 8 8
-16 33 45 2 -12 36 6 4 -0 -10 7 -23 1 -2 -4 -2 27 22 18 5 4 15 20 12 17 5 3 7 8 9 9 8 7 9 7 8 8 7
31 -5 36 -18 46 30 27 34 1 26 -23 12 38 12 6 34 13 17 23 13 27 12 7 31 15 11 6 0 7 8 9 7 8 6 8 8 7 8
7 -5 -5 9 15 20 30 23 11 25 35 15 35 15 8 28 13 10 -5 20 17 21 21 29 15 8 4 8 9 9 8 8 7 7 7 8 8 7
4 5 7 6 -1 -5 -9 12 11 26 18 -0 4 12 18 9 31 24 33 28 18 4 25 11 6 3 6 7 8 8 8 8 7 6 8 9 9 9
6 4 3 3 5 6 6 7 -5 -2 -11 6 9 2 11 22 12 12 20 -8 12 7 3 8 6 5 5 7 9 9 7 7 6 6 8 9 10 10
7 7 7 6 3 3 5 6 5 5 4 -0 7 7 14 12 -9 12 -14 18 6 -9 12 -6 2 4 6 9 9 7 8 7 7 8 10 10 11 10
11 9 7 8 9 8 5 4 4 6 6 6 7 10 -7 20 13 -17 17 -22 1 32 16 12 10 2 5 8 10 9 8 6 7 9 11 11 11 11
11 10 13 13 9 10 10 8 7 5 4 6 5 11 16 -6 4 7 30 11 9 -6 35 -3 4 -0 1 7 10 9 8 6 7 10 12 10 12 11
7 9 12 13 16 18 13 16 14 10 9 6 10 8 4 4 23 24 -10 -8 14 -0 15 12 7 1 3 8 9 8 7 7 9 13 11 11 12 13
20 16 13 12 16 24 24 20 12 12 15 16 10 9 15 24 0 0 24 16 15 10 -15 21 -2 24 5 -1 9 8 8 7 11 12 11 12 12 13
18 18 14 12 15 17 27 27 26 21 15 16 22 16 24 11 28 38 14 27 10 20 9 30 39 12 19 24 6 7 7 9 12 11 12 11 12 10
20 22 24 22 17 18 17 23 20 17 17 19 17 25 14 23 16 7 32 -14 27 15 20 28 6 9 5 0 -5 6 8 11 12 11 12 11 11 7
17 17 19 25 22 20 22 23 17 12 14 16 16 17 31 -17 8 28 -24 29 16 10 14 20 10 4 5 8 9 8 7 13 14 12 10 9 9 11
14 15 16 15 18 19 21 24 19 17 20 15 31 9 24 13 23 8 24 15 9 -3 22 -8 -4 12 8 9 7 7 10 12 14 14 10 10 11 11
14 14 14 15 17 20 21 24 20 15 21 28 9 19 10 1 12 26 20 17 -8 36 17 0 6 4 11 9 8 8 11 14 13 9 11 10 10 8
16 14 14 15 15 18 21 21 23 22 20 31 -8 28 18 21 0 11 13 19 20 23 -8 3 5 14 11 9 8 9 10 12 13 12 10 7 6 8
7 12 14 14 16 17 18 21 18 20 7 33 -1 13 23 -1 15 29 11 13 14 21 26 27 28 19 12 9 10 8 12 13 12 9 6 8 10 6
9 7 9 14 16 17 19 21 20 19 17 5 23 19 23 13 26 19 -2 25 3 23 7 8 23 17 9 12 11 10 12 12 10 6 7 10 9 7
11 6 7 9 13 16 18 17 13 15 17 21 -7 26 22 28 9 15 12 6 4 18 6 10 19 12 10 8 7 6 9 10 8 6 9 9 9 6
12 12 15 11 13 15 17 16 18 23 26 8 2 5 18 25 14 21 15 17 19 19 14 12 17 13 9 7 9 9 10 9 8 10 11 5 6 7
10 10 13 14 14 15 16 17 17 19 21 7 8 33 23 24 21 16 17 14 19 13 20 19 15 23 11 7 9 11 7 9 13 12 9 9 8 8
Height
3045 3046 3047 3051 3052 3056 3058 3060 3064 3065 3065 3071 3071 3075 3076 3076 3078 3077 3077 3078 3080 3080 3081 3083 3085 3085 3086 3087 3089 3089 3089 3089 3088 3088 3087 3086 3085 3082
3035 3037 3039 3040 3043 3044 3047 3049 3052 3056 3053 3058 3059 3061 3062 3063 3065 3065 3065 3065 3068 3069 3070 3072 3074 3076 3078 3080 3082 3081 3081 3082 3082 3082 3082 3080 3078 3076
3028 3029 3029 3030 3031 3033 3037 3039 3042 3043 3041 3045 3046 3049 3050 3051 3053 3052 3052 3054 3055 3058 3059 3061 3063 3065 3068 3072 3074 3074 3075 3075 3075 3075 3074 3073 3072 3071
3022 3022 3022 3021 3022 3024 3025 3026 3028 3029 3030 3032 3032 3036 3037 3037 3039 3040 3040 3041 3043 3046 3048 3050 3053 3058 3061 3064 3066 3066 3068 3067 3068 3068 3068 3067 3065 3065
3014 3014 3016 3014 3015 3016 3016 3016 3016 3017 3018 3020 3020 3022 3023 3026 3027 3026 3028 3030 3032 3035 3038 3042 3047 3050 3053 3056 3058 3059 3059 3060 3061 3061 3060 3059 3058 3057
3008 3006 3006 3006 3007 3006 3006 3006 3006 3007 3008 3009 3010 3012 3014 3015 3015 3017 3018 3021 3024 3028 3032 3036 3039 3042 3045 3047 3048 3050 3050 3052 3052 3053 3053 3052 3052 3051
2999 2998 2997 2997 2996 2996 2996 2996 2997 2998 2998 2999 3001 3002 3003 3005 3008 3011 3013 3016 3017 3021 3024 3028 3031 3034 3036 3037 3039 3040 3042 3044 3044 3045 3044 3044 3044 3044
2985 2985 2985 2986 2986 2985 2984 2984 2986 2987 2988 2989 2991 2993 2995 2996 2999 3003 3005 3007 3008 3011 3015 3018 3021 3024 3027 3029 3030 3031 3034 3036 3037 3037 3037 3036 3037 3037
2968 2969 2969 2970 2970 2970 2971 2972 2972 2973 2974 2976 2978 2980 2984 2988 2991 2991 2993 2994 3000 3002 3003 3006 3010 3014 3018 3019 3022 3024 3025 3028 3028 3028 3029 3030 3031 3030
2949 2949 2949 2952 2953 2952 2952 2954 2956 2958 2961 2963 2963 2964 2970 2976 2979 2980 2982 2984 2986 2989 2991 2993 2999 3003 3006 3009 3013 3017 3019 3019 3020 3020 3022 3022 3022 3023
2931 2930 2929 2929 2931 2934 2932 2933 2937 2940 2943 2945 2948 2951 2955 2959 2964 2965 2967 2971 2971 2975 2979 2983 2987 2991 2995 2998 3004 3007 3010 3011 3012 3013 3015 3015 3015 3017
2918 2914 2912 2910 2910 2913 2914 2914 2915 2920 2925 2927 2930 2933 2938 2941 2947 2953 2953 2957 2959 2964 2966 2971 2975 2979 2983 2990 2993 2998 3001 3003 3004 3005 3007 3008 3008 3012
2900 2898 2897 2895 2892 2891 2893 2894 2896 2900 2904 2908 2912 2915 2920 2925 2929 2935 2940 2944 2947 2951 2956 2959 2964 2969 2974 2980 2985 2987 2991 2995 2996 2997 3000 3001 3003 3007
2884 2882 2880 2879 2878 2877 2876 2878 2880 2881 2884 2890 2895 2900 2906 2910 2916 2921 2926 2930 2935 2942 2946 2949 2953 2960 2963 2969 2973 2978 2982 2985 2987 2989 2993 2994 2997 3000
2871 2868 2866 2865 2864 2863 2863 2864 2865 2866 2869 2873 2877 2884 2893 2896 2900 2906 2912 2914 2921 2927 2932 2936 2943 2948 2953 2958 2965 2969 2972 2976 2979 2983 2986 2989 2991 2994
2863 2859 2857 2854 2852 2851 2850 2850 2851 2853 2855 2859 2864 2871 2875 2882 2888 2892 2894 2902 2906 2910 2917 2926 2932 2939 2942 2949 2955 2960 2964 2968 2973 2975 2978 2983 2985 2987
2853 2850 2848 2845 2842 2841 2839 2839 2839 2842 2844 2848 2853 2858 2861 2866 2873 2879 2882 2883 2891 2898 2903 2910 2919 2926 2933 2940 2944 2950 2955 2960 2965 2968 2973 2977 2979 2981
2845 2842 2839 2837 2834 2832 2830 2829 2829 2831 2834 2837 2842 2846 2849 2854 2859 2866 2871 2877 2878 2885 2893 2899 2907 2915 2921 2928 2935 2939 2945 2950 2954 2960 2965 2970 2974 2976
2838 2835 2832 2829 2827 2824 2822 2821 2821 2822 2826 2829 2833 2836 2839 2843 2847 2853 2860 2865 2872 2876 2881 2889 2894 2900 2909 2918 2926 2931 2936 2942 2946 2951 2958 2964 2967 2970
2831 2828 2825 2822 2820 2817 2816 2814 2814 2815 2818 2821 2825 2827 2830 2834 2837 2843 2849 2855 2860 2866 2871 2877 2882 2890 2900 2910 2917 2922 2927 2933 2939 2945 2950 2956 2960 2964
2823 2820 2818 2815 2813 2811 2809 2808 2807 2809 2811 2814 2817 2820 2822 2825 2830 2834 2841 2847 2853 2859 2864 2870 2877 2880 2889 2898 2905 2911 2919 2925 2931 2937 2943 2948 2953 2957
2815 2812 2810 2809 2807 2805 2803 2802 2802 2802 2805 2808 2812 2814 2815 2819 2823 2826 2832 2837 2844 2850 2857 2864 2869 2875 2882 2891 2899 2905 2912 2918 2923 2929 2935 2940 2946 2950
2807 2804 2803 2802 2800 2799 2797 2796 2796 2797 2799 2803 2806 2808 2811 2813 2816 2819 2824 2829 2836 2842 2848 2854 2861 2867 2873 2880 2889 2895 2903 2910 2916 2922 2928 2934 2938 2943